Weather History for KCIN - June, 2013

Change the Weather History Date:

Friday, June 28, 2013

  Actual Average Record
Temperature  
Mean Temperature 77 °F -  
Max Temperature 86 °F 87 °F - (-1)
Min Temperature 68 °F 61 °F - (-1)
Cooling Degree Days 12    
Growing Degree Days 27 (Base 50)    
Moisture  
Dew Point 57 °F    
Average Humidity 53    
Maximum Humidity 88    
Minimum Humidity 30    
Precipitation  
Precipitation 0.00 in - - ()
Sea Level Pressure  
Sea Level Pressure 29.90 in    
Wind  
Wind Speed 15 mph (NW)    
Max Wind Speed 30 mph    
Max Gust Speed 39 mph    
Visibility 10 miles    
Events      
Averages and records for this station are not official NWS values.
T = Trace of Precipitation, MM = Missing Value Source: NWS Daily Summary

Daily Weather History Graph

Daily Weather History Graph

Search for Another Location

Airport or City:

Trip Planner

Search our weather history database for the weather conditions in past years. The results will help you decide how hot, cold, wet, or windy it might be!

Date:

Astronomy

Jun. 28, 2013 Rise Set
Actual Time 5:45 AM CDT 8:58 PM CDT
Civil Twilight 5:11 AM CDT 9:33 PM CDT
Nautical Twilight 4:27 AM CDT 10:17 PM CDT
Astronomical Twilight 3:33 AM CDT 11:11 PM CDT
Moon No Moon Rise 12:01 PM CDT (6/28)
Length of Visible Light 16h 21m
Length of Day
15h 13m
Waning Gibbous, 66% of the Moon is Illuminated
Jun 28
Waning Gibbous
Jun 29
Last Quarter
Jul 8
New
Jul 15
First Quarter
Jul 22
Full

Hourly Weather History & Observations

Time (CDT) Temp. Heat Index Dew Point Humidity Pressure Visibility Wind Dir Wind Speed Gust Speed Precip Events Conditions
12:15 AM 69.8 °F - 64.4 °F 83% 29.93 in 10.0 mi West 9.2 mph - N/A   Clear
12:35 AM 68.0 °F - 64.4 °F 88% 29.93 in 10.0 mi West 9.2 mph - N/A   Clear
12:55 AM 69.8 °F - 64.4 °F 83% 29.93 in 10.0 mi West 10.4 mph - N/A   Mostly Cloudy
1:35 AM 69.8 °F - 64.4 °F 83% 29.92 in 10.0 mi West 10.4 mph - N/A   Scattered Clouds
1:55 AM 69.8 °F - 64.4 °F 83% 29.91 in 10.0 mi West 10.4 mph - N/A   Clear
2:15 AM 69.8 °F - 64.4 °F 83% 29.91 in 10.0 mi West 9.2 mph - N/A   Partly Cloudy
2:35 AM 71.6 °F - 64.4 °F 78% 29.91 in 10.0 mi West 11.5 mph - N/A   Partly Cloudy
2:55 AM 71.6 °F - 64.4 °F 78% 29.92 in 10.0 mi NW 9.2 mph - N/A   Mostly Cloudy
3:15 AM 71.6 °F - 62.6 °F 73% 29.92 in 10.0 mi WNW 11.5 mph - N/A   Partly Cloudy
3:35 AM 71.6 °F - 62.6 °F 73% 29.92 in 10.0 mi WNW 9.2 mph - N/A   Mostly Cloudy
3:55 AM 69.8 °F - 64.4 °F 83% 29.92 in 10.0 mi WNW 9.2 mph - N/A   Partly Cloudy
4:15 AM 69.8 °F - 64.4 °F 83% 29.91 in 10.0 mi WNW 9.2 mph - N/A   Clear
4:35 AM 68.0 °F - 64.4 °F 88% 29.91 in 10.0 mi WNW 9.2 mph - N/A   Partly Cloudy
4:55 AM 68.0 °F - 60.8 °F 78% 29.92 in 10.0 mi NW 10.4 mph - N/A   Clear
5:15 AM 69.8 °F - 60.8 °F 73% 29.92 in 10.0 mi NW 11.5 mph - N/A   Clear
5:35 AM 68.0 °F - 59.0 °F 73% 29.92 in 10.0 mi NNW 12.7 mph - N/A   Clear
5:55 AM 68.0 °F - 59.0 °F 73% 29.92 in 10.0 mi NW 11.5 mph - N/A   Clear
6:15 AM 68.0 °F - 59.0 °F 73% 29.92 in 10.0 mi NW 11.5 mph - N/A   Clear
6:35 AM 68.0 °F - 59.0 °F 73% 29.93 in 10.0 mi NW 11.5 mph - N/A   Clear
6:55 AM 69.8 °F - 59.0 °F 68% 29.94 in 10.0 mi NW 10.4 mph - N/A   Clear
7:55 AM 73.4 °F - 59.0 °F 61% 29.95 in 10.0 mi NW 10.4 mph - N/A   Clear
8:15 AM 73.4 °F - 59.0 °F 61% 29.95 in 10.0 mi NNW 13.8 mph - N/A   Clear
8:35 AM 75.2 °F - 57.2 °F 53% 29.95 in 10.0 mi NNW 15.0 mph - N/A   Clear
8:55 AM 75.2 °F - 57.2 °F 53% 29.95 in 10.0 mi NNW 15.0 mph 20.7 mph N/A   Clear
9:15 AM 77.0 °F - 57.2 °F 50% 29.95 in 10.0 mi NW 17.3 mph - N/A   Clear
9:35 AM 77.0 °F - 57.2 °F 50% 29.94 in 10.0 mi NW 18.4 mph 26.5 mph N/A   Clear
9:55 AM 78.8 °F - 57.2 °F 47% 29.94 in 10.0 mi NW 19.6 mph - N/A   Clear
10:15 AM 78.8 °F - 57.2 °F 47% 29.94 in 10.0 mi NW 19.6 mph 26.5 mph N/A   Clear
10:35 AM 78.8 °F - 57.2 °F 47% 29.93 in 10.0 mi NW 18.4 mph 26.5 mph N/A   Light Drizzle
10:55 AM 80.6 °F 80.8 °F 57.2 °F 45% 29.93 in 10.0 mi NW 18.4 mph 28.8 mph N/A   Light Drizzle
11:15 AM 80.6 °F 80.5 °F 55.4 °F 42% 29.93 in 10.0 mi NNW 20.7 mph 29.9 mph N/A   Light Drizzle
11:35 AM 80.6 °F 80.8 °F 57.2 °F 45% 29.93 in 10.0 mi NW 18.4 mph 29.9 mph N/A   Light Drizzle
11:55 AM 80.6 °F 80.5 °F 55.4 °F 42% 29.92 in 10.0 mi NW 24.2 mph 33.4 mph N/A   Light Drizzle
12:15 PM 82.4 °F 81.7 °F 55.4 °F 39% 29.92 in 10.0 mi NW 25.3 mph 34.5 mph N/A   Light Drizzle
12:35 PM 82.4 °F 81.7 °F 55.4 °F 39% 29.91 in 10.0 mi NNW 25.3 mph 31.1 mph N/A   Light Drizzle
12:55 PM 84.2 °F 82.8 °F 53.6 °F 35% 29.91 in 10.0 mi NNW 26.5 mph 34.5 mph N/A   Light Drizzle
1:15 PM 84.2 °F 82.8 °F 53.6 °F 35% 29.91 in 10.0 mi NW 24.2 mph 39.1 mph N/A   Light Drizzle
1:35 PM 84.2 °F - 51.8 °F 33% 29.90 in 10.0 mi NW 26.5 mph 36.8 mph N/A   Light Drizzle
1:55 PM 84.2 °F 82.8 °F 53.6 °F 35% 29.90 in 10.0 mi NNW 28.8 mph - N/A   Light Drizzle
2:15 PM 84.2 °F 82.8 °F 53.6 °F 35% 29.89 in 10.0 mi NW 24.2 mph 33.4 mph N/A   Light Drizzle
2:35 PM 84.2 °F 82.8 °F 53.6 °F 35% 29.89 in 10.0 mi NW 29.9 mph 39.1 mph N/A   Light Drizzle
2:55 PM 84.2 °F 82.8 °F 53.6 °F 35% 29.89 in - NW 26.5 mph 33.4 mph N/A   Drizzle
3:15 PM 86.0 °F 84.2 °F 53.6 °F 33% 29.88 in 10.0 mi NW 27.6 mph 36.8 mph N/A   Light Drizzle
3:35 PM 84.2 °F - 51.8 °F 33% 29.88 in 10.0 mi NW 24.2 mph 32.2 mph N/A   Light Drizzle
3:55 PM 84.2 °F - 51.8 °F 33% 29.88 in 10.0 mi NW 25.3 mph 38.0 mph N/A   Light Drizzle
4:15 PM 84.2 °F 82.8 °F 53.6 °F 35% 29.87 in 10.0 mi NNW 25.3 mph 33.4 mph N/A   Light Drizzle
4:35 PM 84.2 °F - 50.0 °F 30% 29.87 in 10.0 mi NNW 28.8 mph 39.1 mph N/A   Light Drizzle
4:55 PM 82.4 °F - 51.8 °F 35% 29.87 in 10.0 mi NNW 23.0 mph 33.4 mph N/A   Light Drizzle
5:15 PM 84.2 °F - 50.0 °F 30% 29.87 in 10.0 mi NW 26.5 mph 38.0 mph N/A   Light Drizzle
5:35 PM 82.4 °F - 48.2 °F 30% 29.87 in 10.0 mi NW 27.6 mph - N/A   Light Drizzle
5:55 PM 84.2 °F - 51.8 °F 33% 29.86 in 10.0 mi NNW 23.0 mph 34.5 mph N/A   Light Drizzle
6:15 PM 84.2 °F - 51.8 °F 33% 29.86 in 10.0 mi NW 20.7 mph 34.5 mph N/A   Light Drizzle
6:35 PM 82.4 °F - 51.8 °F 35% 29.85 in 10.0 mi NNW 23.0 mph 32.2 mph N/A   Light Drizzle
6:55 PM 82.4 °F - 50.0 °F 32% 29.85 in 10.0 mi NW 28.8 mph 36.8 mph N/A   Light Drizzle
7:15 PM 82.4 °F - 50.0 °F 32% 29.85 in 10.0 mi NNW 24.2 mph 32.2 mph N/A   Light Drizzle
7:35 PM 80.6 °F - 51.8 °F 37% 29.85 in 10.0 mi NNW 20.7 mph 27.6 mph N/A   Clear
7:55 PM 80.6 °F - 51.8 °F 37% 29.85 in 10.0 mi NNW 18.4 mph - N/A   Clear
8:15 PM 78.8 °F - 53.6 °F 42% 29.85 in 10.0 mi NNW 12.7 mph 23.0 mph N/A   Scattered Clouds
8:35 PM 77.0 °F - 53.6 °F 44% 29.85 in 10.0 mi NNW 11.5 mph - N/A   Partly Cloudy
8:55 PM 75.2 °F - 55.4 °F 50% 29.85 in 10.0 mi NNW 10.4 mph - N/A   Partly Cloudy
9:15 PM 73.4 °F - 55.4 °F 53% 29.85 in 10.0 mi NW 10.4 mph - N/A   Clear
9:35 PM 73.4 °F - 55.4 °F 53% 29.86 in 10.0 mi NW 10.4 mph - N/A   Clear
9:55 PM 73.4 °F - 55.4 °F 53% 29.86 in 10.0 mi NW 11.5 mph - N/A   Clear
10:15 PM 71.6 °F - 57.2 °F 60% 29.87 in 10.0 mi NNW 12.7 mph - N/A   Clear
10:35 PM 71.6 °F - 57.2 °F 60% 29.87 in 10.0 mi NW 11.5 mph - N/A   Clear
10:55 PM 71.6 °F - 57.2 °F 60% 29.87 in 10.0 mi NW 11.5 mph - N/A   Clear
11:15 PM 69.8 °F - 55.4 °F 60% 29.87 in 10.0 mi NW 10.4 mph - N/A   Clear
11:35 PM 69.8 °F - 55.4 °F 60% 29.86 in 10.0 mi NW 11.5 mph - N/A   Clear
11:55 PM 69.8 °F - 55.4 °F 60% 29.86 in 10.0 mi NW 12.7 mph - N/A   Clear